Location: Oberwangen
(47.4286°N, 8.9679°E)
Time: 23:04:13
(UTC+00:00)

Cosmos 1867 - Pass Details

Date: 20 June 2021
Orbit: 773 x 802 km, 65.0° (Epoch: 23 July)

Event Time Altitude Azimuth Distance (km) Brightness Sun altitude
Rises 21:17:14 0° 322° (NW) 3,322 8.7 -13.4°
Reaches altitude 10° 21:19:40 10° 322° (NW) 2,388 7.5 -13.6°
Maximum altitude 21:25:11 88° 235° (SW) 809 3.6 -14.1°
Enters shadow 21:28:53 21° 145° (SE) 1,710 4.7 -14.4°
